TimeAEST,TemperatureF,Dew PointF,Humidity,Sea Level PressureIn,VisibilityMPH,Wind Direction,Wind SpeedMPH,Gust SpeedMPH,PrecipitationIn,Events,Conditions,WindDirDegrees,DateUTC
12:00 AM,78,67,61,29.97,,ESE,23.0,,,,,110,2012-12-08 14:00:00
12:00 AM,77.0,66.2,69,29.98,-9999.0,ESE,23.0,-,N/A,,Unknown,110,2012-12-08 14:00:00
12:30 AM,77.0,68.0,74,29.95,-9999.0,ESE,20.7,-,N/A,,Unknown,110,2012-12-08 14:30:00
1:00 AM,77.0,66.2,69,29.95,-9999.0,ESE,25.3,-,N/A,,Unknown,110,2012-12-08 15:00:00
1:30 AM,77.0,66.2,69,29.92,-9999.0,ESE,24.2,-,N/A,,Unknown,110,2012-12-08 15:30:00
2:00 AM,77.0,64.4,65,29.92,-9999.0,East,21.9,-,N/A,,Unknown,100,2012-12-08 16:00:00
2:30 AM,77.0,64.4,65,29.92,-9999.0,East,20.7,-,N/A,,Unknown,100,2012-12-08 16:30:00
3:00 AM,77,64,56,29.92,,East,20.7,,,,,100,2012-12-08 17:00:00
3:00 AM,77.0,64.4,65,29.92,-9999.0,East,20.7,-,N/A,,Unknown,100,2012-12-08 17:00:00
3:30 AM,77.0,66.2,69,29.92,-9999.0,East,20.7,-,N/A,,Unknown,100,2012-12-08 17:30:00
4:00 AM,77.0,64.4,65,29.92,-9999.0,ESE,19.6,-,N/A,,Unknown,110,2012-12-08 18:00:00
4:30 AM,77.0,66.2,69,29.92,-9999.0,East,19.6,-,N/A,,Unknown,100,2012-12-08 18:30:00
5:00 AM,77.0,66.2,69,29.92,-9999.0,ESE,20.7,-,N/A,,Unknown,110,2012-12-08 19:00:00
5:30 AM,77.0,64.4,65,29.95,-9999.0,East,18.4,-,N/A,,Unknown,100,2012-12-08 19:30:00
6:00 AM,77,67,63,29.94,,East,17.3,,,,,100,2012-12-08 20:00:00
6:00 AM,77.0,66.2,69,29.95,-9999.0,East,17.3,-,N/A,,Unknown,100,2012-12-08 20:00:00
6:30 AM,78.8,66.2,65,29.95,-9999.0,ESE,20.7,-,N/A,,Unknown,110,2012-12-08 20:30:00
7:00 AM,80.6,66.2,61,29.98,-9999.0,ESE,18.4,-,N/A,,Unknown,110,2012-12-08 21:00:00
7:30 AM,80.6,68.0,65,29.98,-9999.0,ESE,19.6,-,N/A,,Unknown,110,2012-12-08 21:30:00
8:00 AM,80.6,66.2,61,29.98,-9999.0,ESE,19.6,-,N/A,,Unknown,120,2012-12-08 22:00:00
8:30 AM,82.4,66.2,58,30.01,-9999.0,ESE,17.3,-,N/A,,Unknown,110,2012-12-08 22:30:00
9:00 AM,80,66,53,30.00,,ESE,18.4,,,,,120,2012-12-08 23:00:00
9:00 AM,80.6,66.2,61,30.01,-9999.0,ESE,18.4,-,N/A,,Unknown,120,2012-12-08 23:00:00
9:30 AM,80.6,69.8,70,30.01,-9999.0,East,18.4,-,N/A,,Unknown,100,2012-12-08 23:30:00
10:00 AM,84.2,66.2,55,30.01,-9999.0,ESE,17.3,-,N/A,,Unknown,120,2012-12-09 00:00:00
10:30 AM,84.2,66.2,55,29.98,-9999.0,ESE,19.6,-,N/A,,Unknown,120,2012-12-09 00:30:00
11:00 AM,84.2,68.0,58,29.98,-9999.0,ESE,19.6,-,N/A,,Unknown,120,2012-12-09 01:00:00
11:30 AM,84.2,66.2,55,29.98,-9999.0,ESE,20.7,-,N/A,,Unknown,120,2012-12-09 01:30:00
12:00 PM,81,66,51,29.97,,ESE,21.9,,,,,120,2012-12-09 02:00:00
12:00 PM,80.6,66.2,61,29.98,-9999.0,ESE,21.9,-,N/A,,Unknown,120,2012-12-09 02:00:00
12:30 PM,82.4,66.2,58,29.95,-9999.0,ESE,21.9,-,N/A,,Unknown,120,2012-12-09 02:30:00
1:00 PM,84.2,68.0,58,29.95,-9999.0,ESE,21.9,-,N/A,,Unknown,120,2012-12-09 03:00:00
1:30 PM,82.4,66.2,58,29.95,-9999.0,ESE,21.9,-,N/A,,Unknown,120,2012-12-09 03:30:00
2:00 PM,82.4,66.2,58,29.92,-9999.0,ESE,20.7,-,N/A,,Unknown,120,2012-12-09 04:00:00
2:30 PM,82.4,66.2,58,29.92,-9999.0,ESE,20.7,-,N/A,,Unknown,120,2012-12-09 04:30:00
3:00 PM,82,66,49,29.92,,ESE,19.6,,,,,120,2012-12-09 05:00:00
3:00 PM,82.4,66.2,58,29.92,-9999.0,ESE,19.6,-,N/A,,Unknown,120,2012-12-09 05:00:00
3:30 PM,82.4,66.2,58,29.92,-9999.0,ESE,18.4,-,N/A,,Unknown,120,2012-12-09 05:30:00
4:00 PM,80.6,68.0,65,29.92,-9999.0,ESE,19.6,-,N/A,,Unknown,110,2012-12-09 06:00:00
4:30 PM,80.6,68.0,65,29.92,-9999.0,ESE,19.6,-,N/A,,Unknown,120,2012-12-09 06:30:00
5:00 PM,80.6,68.0,65,29.92,-9999.0,ESE,20.7,-,N/A,,Unknown,120,2012-12-09 07:00:00
5:30 PM,78.8,66.2,65,29.92,-9999.0,ESE,20.7,-,N/A,,Unknown,120,2012-12-09 07:30:00
6:00 PM,79,67,59,29.94,,ESE,19.6,,,,,120,2012-12-09 08:00:00
6:00 PM,78.8,68.0,69,29.95,-9999.0,ESE,19.6,-,N/A,,Unknown,120,2012-12-09 08:00:00
6:30 PM,78.8,66.2,65,29.95,-9999.0,ESE,19.6,-,N/A,,Unknown,120,2012-12-09 08:30:00
7:00 PM,78.8,66.2,65,29.95,-9999.0,SE,19.6,-,N/A,,Unknown,130,2012-12-09 09:00:00
7:30 PM,78.8,66.2,65,29.95,-9999.0,ESE,20.7,-,N/A,,Unknown,120,2012-12-09 09:30:00
8:00 PM,78.8,68.0,69,29.95,-9999.0,ESE,20.7,-,N/A,,Unknown,120,2012-12-09 10:00:00
8:30 PM,78.8,68.0,69,29.95,-9999.0,ESE,21.9,-,N/A,,Unknown,120,2012-12-09 10:30:00
9:00 PM,78,67,60,29.96,,ESE,21.9,,,,,120,2012-12-09 11:00:00
9:00 PM,77.0,66.2,69,29.95,-9999.0,ESE,21.9,-,N/A,,Unknown,120,2012-12-09 11:00:00
9:30 PM,77.0,66.2,69,29.95,-9999.0,ESE,20.7,-,N/A,,Unknown,120,2012-12-09 11:30:00
10:00 PM,77.0,68.0,74,29.98,-9999.0,ESE,21.9,-,N/A,,Unknown,120,2012-12-09 12:00:00
10:30 PM,77.0,64.4,65,29.95,-9999.0,ESE,20.7,-,N/A,,Unknown,120,2012-12-09 12:30:00
11:00 PM,77.0,64.4,65,29.95,-9999.0,ESE,20.7,-,N/A,,Unknown,120,2012-12-09 13:00:00
11:30 PM,77.0,66.2,69,29.95,-9999.0,ESE,20.7,-,N/A,,Unknown,120,2012-12-09 13:30:00